This is the latest recevied weather packets stored in our database for station/object K4GSL. If no packets are shown the sender has not sent any weather packets the latest 10 day(s).
| Time | Temp. | Humidity | Pressure | Rain* | Wind** | Luminosity | Snow |
|---|---|---|---|---|---|---|---|
| 1777998126 | 12.78° C | 91% | 1020.5 hPa | 0 mm | - | 84 W/m² | - |
| 1777997823 | 12.78° C | 92% | 1020.4 hPa | 0 mm | - | 74 W/m² | - |
| 1777997521 | 12.22° C | 92% | 1020.5 hPa | 0 mm | - | 66 W/m² | - |
| 1777997218 | 12.22° C | 92% | 1020.5 hPa | 0 mm | - | 58 W/m² | - |
| 1777996915 | 12.22° C | 91% | 1020.6 hPa | 0 mm | - | 59 W/m² | - |
| 1777996611 | 12.78° C | 91% | 1020.6 hPa | 0 mm | - | 65 W/m² | - |
| 1777996308 | 12.78° C | 92% | 1020.4 hPa | 0 mm | - | 72 W/m² | - |
| 1777996004 | 12.22° C | 92% | 1020.3 hPa | 0 mm | - | 72 W/m² | - |
| 1777995700 | 12.22° C | 93% | 1020.2 hPa | 0 mm | - | 59 W/m² | - |
| 1777995398 | 12.22° C | 93% | 1020.4 hPa | 0 mm | - | 54 W/m² | - |
| 1777995095 | 12.22° C | 93% | 1020.3 hPa | 0 mm | - | 54 W/m² | - |
| 1777994791 | 12.22° C | 93% | 1020.3 hPa | 0 mm | - | 55 W/m² | - |
| 1777994487 | 12.22° C | 94% | 1020.2 hPa | 0 mm | - | 56 W/m² | - |
| 1777994183 | 12.22° C | 94% | 1020.2 hPa | 0 mm | - | 53 W/m² | - |
| 1777993880 | 12.22° C | 94% | 1020.2 hPa | 0 mm | - | 42 W/m² | - |
| 1777993576 | 12.22° C | 94% | 1020.2 hPa | 0 mm | - | 33 W/m² | - |
| 1777993273 | 11.67° C | 94% | 1020.3 hPa | 0 mm | - | 28 W/m² | - |
| 1777992968 | 11.67° C | 94% | 1020.2 hPa | 0 mm | - | 26 W/m² | - |
| 1777992668 | 11.67° C | 95% | 1020.1 hPa | 0 mm | - | 25 W/m² | - |
| 1777992365 | 11.67° C | 95% | 1020.2 hPa | 0 mm | - | 22 W/m² | - |
| 1777992062 | 11.67° C | 95% | 1020.2 hPa | 0 mm | - | 19 W/m² | - |
| 1777991760 | 11.67° C | 95% | 1020 hPa | 0 mm | - | 19 W/m² | - |
| 1777991456 | 11.67° C | 95% | 1020.1 hPa | 0 mm | - | 19 W/m² | - |
| 1777991153 | 11.67° C | 95% | 1020 hPa | 0 mm | - | 17 W/m² | - |
| 1777990851 | 11.67° C | 96% | 1019.8 hPa | 0 mm | - | 15 W/m² | - |
* Rain latest hour (hover to see other rain measurements)
** Current wind speed in m/s (hover to see current wind gust speed)